Flag for Germany Weather past 2 weeks in Vechta, Lower Saxony, Germany

Now
63 °F

Fog.


Feels Like: 63 °F
Forecast: 49 / 60 °F
Wind: 8 mph from Northwest

Location: Bremen Airport

Current Time: Sep 21, 2014 at 4:06:50 AM

Latest Report: Sep 21, 2014 at 3:20 AM


Visibility: 2 mi

Pressure: 29.92 "Hg

Humidity: 94%

Dew point: 61 °F

Location of VechtaLocation

Historic Weather in Vechta — Graph

°F

Vechta temperature yesterday

Maximum temperature yesterday: 73 °F (at 1:20 PM)
Minimum temperature yesterday: 57 °F (at 7:20 AM)
Average temperature yesterday: 64 °F

Past Weeks' High & Low Weather Summary

 TemperatureHumidityPressure
High77 °F (Sep 6, 2:20 PM)100% (Sep 6, 3:50 AM)30.24 "Hg (Sep 6, 3:50 AM)
Low50 °F (Sep 9, 7:20 AM)46% (Sep 8, 3:50 PM)29.86 "Hg (Sep 6, 3:50 PM)
Average63 °F81%30.03 "Hg
* Reported Sep 6 2:20 AM — Sep 21 2:50 AM, Vechta, Weather by CustomWeather, © 2014

Note: Actual official high and low records may vary slightly from our data, if they occured in-between our weather recording intervals... More about our weather records

Advertising

Vechta weather history for previous 24 hours

 ConditionsComfort  
Time TempWeatherWind HumidityBarometerVisibility
2:50 AM
Sep 21
63 °FFog.5 mph94%29.92 "Hg2 mi
2:20 AM63 °FFog.3 mph88%29.92 "Hg3 mi
1:50 AM61 °FFog.8 mph94%29.92 "Hg2 mi
1:20 AM61 °FFog.8 mph94%29.92 "Hg3 mi
12:50 AM61 °FFog.5 mph94%29.92 "Hg3 mi
12:20 AM63 °FFog.6 mph88%29.92 "Hg3 mi
11:50 PM
Sep 20
64 °FFog.3 mph88%29.92 "Hg3 mi
11:20 PM64 °FPassing clouds.5 mph83%29.92 "Hg5 mi
10:20 PM64 °FPartly cloudy.12 mph73%29.92 "HgN/A
9:50 PM63 °FPartly cloudy.No wind88%29.89 "HgN/A
9:20 PM63 °FPartly cloudy.No wind88%29.89 "HgN/A
8:50 PM66 °FPartly cloudy.No wind78%29.89 "HgN/A
8:20 PM64 °FSunny.No wind83%29.89 "Hg10 mi
7:50 PM66 °FSunny.5 mph78%29.89 "Hg10 mi
3:20 PM73 °FPartly sunny.7 mph61%29.89 "HgN/A
2:50 PM73 °FBroken clouds.3 mph61%29.89 "HgN/A
2:20 PM73 °FScattered clouds.2 mph61%29.92 "HgN/A
1:50 PM73 °FScattered clouds.5 mph65%29.92 "HgN/A
1:20 PM73 °FScattered clouds.3 mph65%29.92 "HgN/A
12:20 PM72 °FScattered clouds.2 mph69%29.92 "HgN/A
11:50 AM68 °FScattered clouds.1 mph78%29.92 "HgN/A
11:20 AM68 °FSunny.3 mph78%29.92 "Hg10 mi
10:50 AM66 °FScattered clouds.2 mph78%29.92 "HgN/A
10:20 AM64 °FBroken clouds.3 mph83%29.92 "HgN/A
9:50 AM63 °FBroken clouds.3 mph88%29.92 "Hg5 mi
9:20 AM61 °FPartly sunny.3 mph94%29.92 "Hg5 mi
8:50 AM61 °FBroken clouds.2 mph94%29.92 "Hg4 mi
8:20 AM59 °FBroken clouds.1 mph94%29.92 "Hg4 mi
7:50 AM57 °FFog.1 mph94%29.92 "Hg3 mi
7:20 AM57 °FFog.1 mph94%29.89 "Hg3 mi
6:50 AM59 °FPassing clouds.5 mph94%29.89 "Hg4 mi
6:20 AM59 °FPartly cloudy.5 mph94%29.89 "HgN/A
5:50 AM59 °FPartly cloudy.3 mph94%29.89 "HgN/A
5:20 AM59 °FFog.3 mph94%29.89 "HgN/A
4:50 AM59 °FFog.2 mph94%29.89 "HgN/A
4:20 AM59 °FPartly cloudy.5 mph94%29.89 "HgN/A
Weather by CustomWeather, © 2014

See weather overviewHow to use our weather pages